Volver al catálogo

TITAN 34B R/B

ActivoHEO
NORAD 17507·ROCKET BODY·🇺🇸 United States

Lanzado Feb 12, 1987 desde Vandenberg Space Force Base

Loading…

Próximos Pases (próximas 24 horas)

TLE

ActualizadoSource: Space-Track

Época: Sep 13, 2026, 18:22 UTC

1 17507U 87015B   26256.76552849  .00001097  00000-0  00000-0 0  9995
2 17507  63.0386  98.8376 7237077 265.7715  16.5593  2.04986781 54323

Sigue TITAN 34B R/B en tiempo real con AllMySat

Download on the App Store